EW3204 Weather Reports


Display with metric or nautical units.
time (UTC)temp
F
wind
direction
speed
MPH
gust
MPH
rain 1hr
in
rain 24hr
in
rain mn
in
humidity
%
barometer
mb
20260503013056 89 43 6.0 0.0 0.00 0.00 0.00 11 1004.3
20260503011616 89 61 6.0 0.0 0.00 0.00 0.00 11 1004.3
20260503010058 90 22 7.0 0.0 0.00 0.00 0.00 11 1004.2
20260503004600 90 54 5.0 0.0 0.00 0.00 0.00 11 1004.3
20260503003057 90 52 6.0 0.0 0.00 0.00 0.00 10 1004.4
20260503001556 90 44 7.0 0.0 0.00 0.00 0.00 11 1004.3
20260503000051 90 77 6.0 0.0 0.00 0.00 0.00 11 1004.5
20260502234552 91 54 9.0 0.0 0.00 0.00 0.00 10 1004.5
20260502233053 91 46 6.0 0.0 0.00 0.00 0.00 10 1004.7
20260502231548 90 48 6.0 0.0 0.00 0.00 0.00 10 1004.9
20260502230047 91 69 4.0 0.0 0.00 0.00 0.00 10 1005.0
20260502224558 91 65 4.0 0.0 0.00 0.00 0.00 9 1005.3
20260502223044 91 137 8.0 0.0 0.00 0.00 0.00 9 1005.7
20260502221540 91 292 4.0 0.0 0.00 0.00 0.00 9 1005.9
20260502220038 91 86 7.0 0.0 0.00 0.00 0.00 9 1006.3
20260502214535 91 55 6.0 0.0 0.00 0.00 0.00 9 1006.6
20260502213034 90 44 7.0 0.0 0.00 0.00 0.00 9 1006.6
20260502211541 90 129 5.0 0.0 0.00 0.00 0.00 9 1006.8
20260502210037 90 126 5.0 0.0 0.00 0.00 0.00 9 1007.1
20260502204527 90 44 7.0 0.0 0.00 0.00 0.00 9 1007.4
20260502203026 89 140 6.0 0.0 0.00 0.00 0.00 9 1007.6
20260502201525 90 91 7.0 0.0 0.00 0.00 0.00 9 1007.8
20260502200026 89 64 7.0 0.0 0.00 0.00 0.00 8 1008.0
20260502194522 89 136 6.0 0.0 0.00 0.00 0.00 8 1008.2
20260502193020 89 86 6.0 0.0 0.00 0.00 0.00 7 1008.3
20260502191518 88 102 8.0 0.0 0.00 0.00 0.00 8 1008.5
20260502190021 89 65 8.0 0.0 0.00 0.00 0.00 8 1008.5
20260502184529 88 140 6.0 0.0 0.00 0.00 0.00 8 1008.7
20260502183034 88 51 5.0 0.0 0.00 0.00 0.00 9 1009.0
20260502181517 88 131 4.0 0.0 0.00 0.00 0.00 9 1009.2
20260502163017 87 358 1.0 0.0 0.00 0.00 0.00 11 1009.4
20260502161508 87 40 1.0 0.0 0.00 0.00 0.00 11 1009.5
20260502151603 79 305 4.0 0.0 0.00 0.00 0.00 19 1009.5
20260502123041 70 294 5.0 0.0 0.00 0.00 0.00 26 1008.0
20260502121535 69 282 4.0 0.0 0.00 0.00 0.00 27 1007.9
20260502114530 70 273 4.0 0.0 0.00 0.00 0.00 26 1007.8
20260502113030 71 275 4.0 0.0 0.00 0.00 0.00 26 1007.7
20260502111529 71 289 2.0 0.0 0.00 0.00 0.00 26 1007.7
20260502110031 70 260 4.0 0.0 0.00 0.00 0.00 27 1007.6
20260502104526 71 292 3.0 0.0 0.00 0.00 0.00 26 1007.6
20260502103032 72 227 5.0 0.0 0.00 0.00 0.00 26 1007.5
20260502101541 71 298 6.0 0.0 0.00 0.00 0.00 27 1007.6
20260502091514 74 222 2.0 0.0 0.00 0.00 0.00 24 1007.3
20260502070118 75 75 2.0 0.0 0.00 0.00 0.00 32 1007.8
20260502064558 75 143 4.0 0.0 0.00 0.00 0.00 31 1007.7
20260502063059 78 138 2.0 0.0 0.00 0.00 0.00 28 1007.6
20260502061603 79 274 1.0 0.0 0.00 0.00 0.00 26 1007.4
20260502060055 80 254 3.0 0.0 0.00 0.00 0.00 26 1007.3
20260502054558 80 259 3.0 0.0 0.00 0.00 0.00 27 1007.3
20260502053054 80 248 2.0 0.0 0.00 0.00 0.00 27 1007.3
20260502051620 80 280 4.0 0.0 0.00 0.00 0.00 26 1007.2
20260502050057 81 260 2.0 0.0 0.00 0.00 0.00 27 1007.3
20260502044552 81 7 2.0 0.0 0.00 0.00 0.00 23 1007.2
20260502043057 82 282 2.0 0.0 0.00 0.00 0.00 19 1007.1
20260502041551 83 254 5.0 0.0 0.00 0.00 0.00 17 1006.8
20260502040057 84 280 8.0 0.0 0.00 0.00 0.00 16 1006.7
20260502034550 84 273 7.0 0.0 0.00 0.00 0.00 16 1006.5
20260502033050 84 286 8.0 0.0 0.00 0.00 0.00 15 1006.3
20260502031548 85 260 10.0 0.0 0.00 0.00 0.00 15 1006.1
20260502030052 85 269 9.0 0.0 0.00 0.00 0.00 14 1005.8
20260502024549 85 256 11.0 0.0 0.00 0.00 0.00 14 1005.7
20260502023059 86 254 10.0 0.0 0.00 0.00 0.00 15 1005.5
20260502021546 86 252 10.0 0.0 0.00 0.00 0.00 14 1005.4
20260502014549 88 304 10.0 0.0 0.00 0.00 0.00 14 1005.2